Location: Lake Sonoma
(38.7200°N, 123.0564°W)
Time: 18:35:09
(UTC-08:00)

ISS - All Passes

Search period start: 16 December 2017 00:00
Search period end: 26 December 2017 00:00
Orbit: 402 x 406 km, 51.6° (Epoch: 17 December)

Date Brightness Start Highest point End Pass type
(mag) Time Alt. Az. Time Alt. Az. Time Alt. Az.
16 Dec - 10:52:37 10° SW 10:55:53 85° SE 10:59:12 10° NE daylight
16 Dec - 12:30:32 10° WNW 12:32:45 17° NNW 12:34:59 10° NNE daylight
16 Dec - 15:46:10 10° NNW 15:48:01 14° NNE 15:49:51 10° NE daylight
16 Dec - 17:21:44 10° NW 17:25:01 65° NE 17:28:16 10° ESE visible
16 Dec - 18:59:49 10° WSW 19:01:05 12° SW 19:02:21 10° SSW visible
17 Dec - 10:00:36 10° SSW 10:03:42 40° SE 10:06:48 10° ENE daylight
17 Dec - 11:37:31 10° W 11:40:16 24° NNW 11:43:02 10° NNE daylight
17 Dec - 14:54:26 10° N 14:55:25 11° NNE 14:56:25 10° NNE daylight
17 Dec - 16:29:36 10° NW 16:32:40 35° NNE 16:35:43 10° E daylight
17 Dec - 18:06:21 10° WNW 18:09:02 23° SW 18:11:41 10° S visible
18 Dec - 09:09:05 10° S 09:11:34 20° SE 09:14:04 10° E daylight
18 Dec - 10:44:45 10° WSW 10:47:51 39° NNW 10:50:59 10° NE daylight
18 Dec - 12:23:51 10° NW 12:25:03 11° NNW 12:26:15 10° N daylight
18 Dec - 15:37:35 10° NNW 15:40:14 22° NNE 15:42:53 10° E daylight
18 Dec - 17:13:42 10° WNW 17:16:52 47° SW 17:20:01 10° SSE daylight
19 Dec - 08:19:13 10° SE 08:19:30 10° SE 08:19:47 10° ESE daylight
19 Dec - 09:52:15 10° SW 09:55:31 75° NW 09:58:48 10° NE daylight
19 Dec - 11:30:28 10° WNW 11:32:27 15° NNW 11:34:27 10° NNE daylight
19 Dec - 14:45:38 10° NNW 14:47:43 16° NNE 14:49:48 10° ENE daylight
19 Dec - 16:21:19 10° NW 16:24:37 83° NE 16:27:54 10° SE daylight
20 Dec - 09:00:03 10° SW 09:03:15 52° SE 09:06:28 10° ENE daylight
20 Dec - 10:37:20 10° WNW 10:39:55 21° NNW 10:42:31 10° NNE daylight
20 Dec - 13:53:47 10° N 13:55:07 12° NNE 13:56:26 10° NE daylight
20 Dec - 15:29:07 10° NW 15:32:16 42° NNE 15:35:25 10° ESE daylight
20 Dec - 17:06:11 10° W 17:08:32 18° SW 17:10:52 10° S daylight
21 Dec - 08:08:17 10° S 08:11:03 25° SE 08:13:49 10° ENE daylight
21 Dec - 09:44:26 10° W 09:47:26 32° NNW 09:50:27 10° NE daylight
21 Dec - 11:23:53 10° NNW 11:24:42 11° NNW 11:25:32 10° N daylight
21 Dec - 14:37:01 10° NNW 14:39:50 25° NNE 14:42:38 10° E daylight
21 Dec - 16:13:18 10° WNW 16:16:21 36° SW 16:19:24 10° SSE daylight
22 Dec - 07:17:20 10° SSE 07:18:55 13° SE 07:20:31 10° E daylight
22 Dec - 08:51:47 10° WSW 08:55:01 59° NW 08:58:17 10° NE daylight
22 Dec - 10:30:19 10° NW 10:32:03 13° NNW 10:33:48 10° NNE daylight
22 Dec - 13:45:00 10° NNW 13:47:17 17° NNE 13:49:36 10° ENE daylight
22 Dec - 15:20:49 10° NW 15:24:07 77° SW 15:27:22 10° SE daylight
23 Dec - 07:59:26 10° SW 08:02:41 68° SE 08:05:58 10° NE daylight
23 Dec - 09:37:03 10° WNW 09:39:27 18° NNW 09:41:51 10° NNE daylight
23 Dec - 12:53:03 10° NNW 12:54:41 13° NNE 12:56:18 10° NE daylight
23 Dec - 14:28:31 10° NW 14:31:45 53° NE 14:34:58 10° ESE daylight
23 Dec - 16:06:00 10° W 16:07:54 15° SW 16:09:47 10° SSW daylight
24 Dec - 07:07:28 10° SSW 07:10:26 32° SE 07:13:24 10° ENE daylight
24 Dec - 08:44:02 10° W 08:46:54 27° NNW 08:49:47 10° NNE daylight
24 Dec - 10:24:08 10° NNW 10:24:15 10° N 10:24:23 10° N daylight
24 Dec - 12:01:24 10° N 12:01:59 10° N 12:02:34 10° NNE daylight
24 Dec - 13:36:21 10° NNW 13:39:18 30° NNE 13:42:15 10° E daylight
24 Dec - 15:12:51 10° WNW 15:15:44 28° SW 15:18:35 10° SSE daylight
25 Dec - 06:16:05 10° S 06:18:13 16° SE 06:20:23 10° E visible
25 Dec - 07:51:15 10° WSW 07:54:25 47° NW 07:57:37 10° NE daylight
25 Dec - 09:30:05 10° NW 09:31:32 12° NNW 09:33:00 10° N daylight
25 Dec - 12:44:15 10° NNW 12:46:45 20° NNE 12:49:15 10° ENE daylight
25 Dec - 14:20:13 10° WNW 14:23:27 59° SW 14:26:41 10° SE daylight
